Theta_e
331 322 323 322 306 305 302 307 317 318 319 325 330 328 329 333 326 317 337 346 355 356 357 360 363 361 359 358 359 360 360 361 361 361 361 360 360 359 359 359 359 358 358 357 357 357 357 358 358
321 319 315 309 300 296 301 313 315 317 322 325 330 331 332 328 338 331 335 348 355 356 356 358 363 362 359 359 360 360 360 359 359 359 359 358 359 358 358 358 357 356 356 356 356 357 357 357 357
327 320 307 303 299 301 301 312 316 319 327 330 330 333 332 333 336 335 343 352 355 355 357 358 363 363 361 360 361 361 360 360 360 359 358 357 357 355 355 355 355 354 354 355 356 356 358 358 358
310 309 306 300 301 307 311 316 319 320 325 332 333 326 334 346 343 346 352 355 354 356 359 361 363 363 362 360 361 361 361 361 361 360 360 359 358 357 357 357 356 354 354 355 356 357 359 358 359
307 303 297 296 299 311 316 317 319 317 318 327 334 329 330 345 349 350 351 353 352 355 358 359 363 363 362 360 360 361 359 357 356 355 356 357 357 357 358 358 358 357 357 357 357 359 359 358 359
301 301 294 292 304 313 318 321 320 316 322 327 331 329 330 345 345 347 350 350 353 354 356 355 361 361 361 360 359 355 352 349 347 351 350 348 350 351 353 356 358 358 359 358 358 359 359 358 358
298 296 293 295 304 308 316 320 318 315 320 320 330 327 331 340 344 347 347 349 351 351 352 353 355 356 357 355 354 351 348 349 350 348 348 347 347 347 348 348 348 349 350 350 352 352 353 355 355
301 299 294 295 302 305 316 318 317 315 315 324 336 323 319 337 345 338 341 346 347 348 350 347 345 340 338 340 351 350 349 349 348 347 345 344 340 342 345 342 344 347 346 347 345 345 344 345 346
304 296 293 297 299 307 316 314 317 319 317 324 327 331 332 344 337 331 341 344 344 343 333 328 324 321 327 334 345 346 350 347 342 338 342 332 328 328 330 339 343 344 343 343 342 341 342 341 338
300 295 298 303 303 309 315 315 317 315 322 323 329 335 341 341 333 334 338 339 330 325 324 324 324 322 322 333 328 325 330 329 328 327 326 325 326 329 330 331 336 335 337 335 336 336 335 332 324
297 298 302 303 305 314 315 314 315 319 319 324 327 326 337 337 336 338 340 327 323 324 327 326 325 323 323 323 321 320 321 324 327 327 325 322 323 323 323 320 321 322 329 322 323 321 322 323 322
296 303 303 303 304 316 314 315 310 313 322 328 327 327 325 331 330 321 320 322 324 325 326 327 326 323 322 323 321 318 319 320 323 322 324 321 319 319 322 318 318 318 320 318 317 317 318 320 321
299 304 305 305 304 304 310 305 305 309 325 325 322 321 317 318 319 321 324 326 326 325 327 328 326 322 324 321 322 318 317 320 319 319 324 320 318 317 322 317 318 317 320 317 316 315 317 319 319
301 303 302 303 304 302 305 305 305 309 322 321 319 316 319 320 321 323 324 324 324 325 325 325 326 322 322 321 319 318 315 320 318 320 322 321 318 317 321 317 319 317 318 319 316 315 316 317 316
303 298 300 301 300 302 304 300 303 307 319 317 317 317 319 321 323 322 324 324 325 325 325 323 323 323 318 318 321 320 320 319 318 320 321 322 320 319 319 318 317 318 319 316 316 316 315 316 316
299 297 293 298 301 302 302 294 304 307 308 310 312 318 319 320 322 324 325 325 326 326 323 322 324 322 321 320 319 318 318 317 317 318 317 318 317 318 317 316 318 319 315 314 314 312 313 312 312
294 290 292 296 300 301 298 294 305 306 305 305 308 317 318 319 322 324 325 325 324 323 321 320 320 321 319 317 317 317 316 316 316 315 314 315 318 318 315 314 315 314 313 313 311 311 310 311 312
292 290 293 293 300 299 296 296 303 305 304 303 303 316 317 319 321 324 324 325 323 322 321 320 320 320 317 317 317 315 314 315 315 313 312 314 315 317 314 313 313 312 311 310 310 309 310 310 311
296 294 293 297 302 297 295 297 302 303 303 302 302 313 316 319 323 325 325 323 322 322 321 321 319 318 316 316 314 311 310 311 313 311 314 314 314 317 312 310 311 311 310 309 309 308 308 308 308
297 293 294 298 303 300 298 297 302 305 305 304 304 310 315 318 321 323 323 322 321 320 320 319 318 316 315 316 316 312 311 312 313 311 311 312 314 314 312 309 309 309 308 308 308 307 307 307 307
295 295 296 297 300 300 299 296 301 306 309 310 310 312 317 319 319 322 321 320 320 319 320 319 318 315 315 315 313 311 311 310 308 309 308 310 314 313 311 310 309 308 306 307 306 307 305 306 309
294 301 301 299 294 289 297 287 297 302 305 308 310 313 316 318 321 322 320 317 318 320 320 318 318 315 315 313 311 309 307 306 307 307 307 309 310 310 311 310 309 307 306 305 307 311 308 308 308
299 303 299 299 293 290 294 291 294 302 301 304 308 314 317 319 319 318 318 320 320 320 316 316 316 315 314 312 312 310 308 307 307 306 305 305 307 308 310 309 308 306 306 307 307 308 308 308 307
304 299 298 296 291 287 292 292 291 296 302 307 312 315 317 319 320 321 322 322 317 314 316 317 315 314 315 316 315 310 307 305 304 304 303 304 304 305 306 308 306 305 305 306 306 308 304 304 307
300 294 287 287 286 287 295 294 294 301 305 308 311 313 316 317 318 318 316 310 309 313 315 315 316 314 313 312 309 307 305 304 304 303 303 303 302 302 304 305 304 304 305 306 304 303 303 305 305
296 294 288 283 284 287 296 290 294 303 306 312 313 312 315 315 312 308 307 308 309 308 308 309 309 309 307 306 305 306 305 305 305 307 305 303 302 303 304 305 304 306 305 306 302 301 302 306 307
296 292 295 290 289 286 291 296 302 304 302 305 304 304 303 304 305 305 305 305 307 306 306 306 306 305 305 304 304 305 305 305 304 303 303 302 303 305 305 304 303 307 305 304 305 302 303 305 305
300 301 292 290 283 283 289 291 292 296 298 300 301 300 301 302 302 302 303 303 303 304 303 303 303 302 302 303 303 305 304 306 305 303 302 302 302 302 301 302 303 301 303 304 301 301 301 302 303
298 295 296 294 294 286 283 288 298 298 301 298 298 299 299 299 300 301 301 301 300 301 300 301 301 301 301 301 302 303 304 303 302 301 301 301 301 300 301 302 301 303 305 302 302 304 305 304 304
302 298 295 289 289 291 288 286 298 297 299 298 300 300 299 300 300 300 299 299 298 297 297 297 299 299 301 301 301 300 301 301 300 300 300 301 301 301 301 301 301 301 304 303 300 302 304 304 303
Wind_Speed
6 2 2 3 5 6 2 1 5 10 7 10 16 14 6 7 3 6 3 7 10 5 5 9 13 14 14 13 13 13 12 11 11 11 11 10 10 9 8 6 5 5 5 4 4 4 5 6 7
3 2 4 3 6 5 3 5 12 15 12 12 29 19 10 9 8 11 6 8 10 8 5 7 13 12 14 13 11 11 12 11 11 9 9 8 7 7 6 6 5 4 4 4 4 5 6 7 8
2 1 4 5 3 5 4 5 11 12 18 9 7 6 5 6 8 6 6 13 11 8 7 9 12 11 12 12 11 10 10 9 10 8 7 6 6 6 5 5 4 4 5 5 6 7 7 9 9
2 5 5 5 2 3 5 5 13 11 11 7 9 6 4 7 14 12 10 13 13 9 7 10 11 11 11 11 11 9 10 9 9 7 6 7 7 6 6 6 5 5 5 6 7 8 9 10 11
4 3 4 3 2 3 4 3 6 10 9 7 11 7 5 11 20 18 15 12 13 10 8 8 11 11 10 11 11 9 9 9 8 7 7 7 6 6 6 5 6 8 9 10 10 10 10 11 12
4 3 4 1 2 3 6 11 8 5 5 3 12 10 6 11 17 13 15 14 10 10 7 9 12 10 10 10 10 10 10 10 10 11 10 9 9 8 12 9 10 11 11 11 12 13 13 13 14
5 4 4 4 5 2 6 3 5 8 6 2 5 8 3 8 14 12 13 13 11 10 9 6 6 9 12 11 10 10 10 10 12 15 16 17 17 16 15 15 14 15 15 14 14 15 14 13 14
6 5 3 1 4 9 6 5 7 11 13 4 11 7 10 11 13 10 10 9 10 7 5 5 4 4 6 5 7 8 8 11 13 15 16 16 16 15 15 14 16 17 18 17 17 17 16 15 16
4 4 4 7 2 8 3 5 5 8 5 1 7 7 15 22 13 10 10 7 9 7 5 5 4 3 2 5 4 5 7 10 12 11 14 10 5 7 10 16 19 20 20 17 18 17 15 16 16
4 4 8 8 4 5 6 7 8 5 10 3 11 13 22 23 18 16 13 13 9 7 5 4 3 3 2 4 5 5 6 5 5 6 7 5 6 6 7 10 15 16 15 17 17 18 17 13 7
1 6 6 2 5 10 8 2 5 8 8 18 21 23 26 23 19 16 15 16 15 9 7 6 9 6 7 4 2 2 3 3 3 5 5 5 4 4 4 3 4 5 9 5 7 8 6 8 8
3 13 8 5 4 7 9 4 10 10 9 15 17 20 22 21 17 18 17 15 13 11 9 9 8 7 6 3 4 4 4 3 2 2 3 4 3 4 4 3 4 4 3 5 5 4 5 7 9
6 18 12 7 7 8 9 4 5 7 14 11 10 10 15 19 16 14 16 13 12 13 10 9 8 7 6 7 5 5 4 4 4 3 4 3 4 3 3 4 3 4 4 4 5 5 5 8 7
3 9 4 7 3 4 13 5 5 3 13 14 13 16 18 22 22 17 16 14 13 12 10 8 9 8 8 6 5 4 4 5 5 4 4 3 4 4 3 4 4 5 4 5 5 5 5 5 6
6 4 4 2 2 4 10 3 9 8 14 14 10 16 19 22 21 20 17 16 15 12 11 11 9 8 8 6 5 5 5 6 5 5 6 7 6 6 6 5 5 4 4 6 5 5 5 6 7
6 5 6 6 0 3 7 6 5 7 10 10 12 16 18 18 21 18 18 17 14 14 11 9 9 8 8 7 5 4 5 4 5 7 5 9 7 6 5 4 4 5 5 4 4 4 4 5 5
8 4 5 12 7 6 5 6 7 9 11 11 11 20 18 15 14 15 16 16 15 14 13 10 10 9 8 7 6 6 7 6 4 3 3 5 5 6 4 4 4 6 4 4 4 3 3 5 6
7 4 6 8 11 8 6 7 7 10 10 12 9 15 15 19 19 17 16 14 15 13 12 12 9 10 8 6 5 4 4 3 2 2 3 4 4 5 4 3 4 4 4 4 4 5 4 5 7
3 5 6 6 5 5 2 6 8 4 2 6 7 15 13 14 14 14 15 15 13 10 11 9 9 6 5 3 4 3 1 1 1 1 4 3 4 4 4 3 4 4 4 4 5 4 6 5 4
3 2 6 5 10 5 3 2 2 8 6 7 6 7 13 15 16 16 14 12 10 9 7 6 8 6 5 4 2 3 3 3 3 2 3 3 5 5 4 4 4 5 4 6 6 5 6 4 3
4 5 4 2 6 7 8 6 12 7 13 15 10 14 16 18 17 12 12 7 9 10 8 9 8 8 6 5 3 2 2 2 3 3 3 4 5 5 5 5 4 5 4 6 6 6 6 7 8
4 1 5 5 6 1 5 4 5 8 12 10 14 6 13 13 11 10 8 5 6 5 8 8 7 7 5 6 3 4 3 3 3 2 3 4 5 6 5 5 5 5 4 5 5 7 6 5 8
5 2 3 2 2 3 6 6 5 6 8 8 9 12 9 11 8 10 9 5 8 5 3 5 7 6 5 6 7 5 4 1 1 2 4 3 4 6 5 4 5 5 4 5 6 7 6 4 6
4 4 7 6 3 4 4 5 4 3 3 6 11 17 13 13 9 7 4 3 1 6 7 6 8 6 7 4 2 2 1 1 1 3 3 4 3 4 5 5 5 5 5 5 5 6 6 5 5
10 8 5 6 7 5 3 5 6 2 5 5 13 12 12 9 4 7 4 5 5 7 7 6 6 3 4 5 7 6 4 1 3 3 3 5 4 3 5 5 5 4 5 5 5 5 6 6 6
1 7 6 2 2 5 5 4 3 3 7 13 12 12 10 8 4 4 8 8 13 14 10 9 8 8 7 6 5 4 3 2 2 3 3 4 3 4 5 5 6 6 5 4 5 4 4 5 5
5 2 4 4 3 3 2 3 4 7 11 10 9 8 9 12 14 15 14 13 11 12 12 10 10 8 6 5 4 4 4 4 4 5 4 4 5 4 5 6 6 5 6 5 5 4 6 5 6
5 3 6 5 3 4 2 2 4 6 6 8 9 12 13 13 14 13 13 12 10 9 8 8 7 6 5 5 5 4 5 6 6 6 6 6 5 4 6 6 6 6 6 6 5 5 6 5 4
6 4 4 5 5 5 1 5 4 7 4 8 10 12 13 13 12 11 10 8 7 6 7 6 7 8 7 7 6 6 6 6 6 5 6 5 5 5 6 5 6 7 7 6 6 7 7 8 7
4 3 4 6 5 3 4 5 5 4 7 11 15 13 10 11 10 8 6 5 4 4 5 6 6 6 6 6 5 5 6 6 6 6 6 5 6 6 6 6 6 6 7 5 6 6 6 7 7
Wind_Direction
284 276 182 43 52 62 106 250 83 76 36 334 296 256 167 48 50 126 285 97 121 133 118 98 94 93 90 86 86 85 83 79 80 84 87 83 82 78 72 61 55 56 48 38 16 352 335 327 324
318 343 41 54 76 66 325 340 77 110 133 203 256 251 50 68 64 107 108 146 135 127 110 101 99 99 97 94 89 90 91 89 82 75 78 78 80 84 80 68 51 38 19 1 344 329 319 313 307
280 202 73 92 91 127 152 104 150 132 158 206 263 16 56 95 81 126 144 142 127 118 105 101 96 92 92 93 92 88 87 86 87 82 77 74 72 68 64 56 28 8 350 330 320 312 304 298 292
334 5 26 82 141 351 143 186 156 160 234 216 105 61 61 140 150 134 142 130 127 107 96 102 106 107 101 97 93 88 83 76 72 69 63 57 46 30 24 20 0 334 327 317 315 305 297 293 289
30 58 45 78 228 162 205 138 165 180 183 189 134 124 59 80 110 130 136 123 121 124 125 117 113 109 107 106 100 94 85 81 73 61 47 40 38 21 14 359 334 329 325 319 311 296 289 284 282
13 94 39 52 120 240 265 172 166 141 246 127 117 115 69 116 124 149 133 132 121 125 123 120 125 123 119 114 111 105 98 84 59 55 48 34 22 24 12 357 355 340 320 314 305 299 292 285 282
130 87 220 168 185 264 251 173 198 120 248 181 140 103 98 165 148 141 128 132 134 132 129 125 135 139 133 132 135 123 110 82 71 66 55 49 46 44 41 43 22 16 12 1 354 351 338 324 313
121 105 304 304 164 245 224 206 148 133 216 89 131 167 177 174 165 128 121 115 116 112 115 128 139 126 129 137 121 112 91 70 67 64 59 50 42 36 33 27 18 10 10 17 19 12 6 2 349
136 69 299 264 252 237 233 190 140 156 108 104 207 143 152 150 148 130 108 95 107 104 89 92 78 46 52 100 87 69 82 76 68 60 62 49 38 30 28 17 13 9 7 17 12 7 2 1 352
107 119 231 208 231 190 216 186 139 141 141 186 133 120 139 148 156 146 144 141 119 109 87 84 106 108 20 75 59 59 81 79 70 72 67 68 48 34 34 19 15 9 18 12 5 358 355 356 348
168 219 271 264 265 165 188 295 104 134 160 159 152 144 152 151 156 153 154 139 131 124 98 86 85 63 75 78 74 88 84 70 63 77 85 76 61 32 22 7 6 357 1 358 356 350 347 338 336
306 276 250 274 181 137 168 181 161 183 182 161 155 157 146 157 161 141 128 125 128 121 104 89 88 81 69 61 59 57 47 43 64 30 93 62 40 24 13 353 347 358 342 342 345 337 318 330 335
205 265 265 235 146 156 130 146 141 135 159 165 153 118 118 130 124 117 121 125 128 108 104 99 95 79 59 51 41 34 32 40 22 7 56 64 34 6 318 320 335 334 340 340 338 330 339 338 337
275 282 310 182 105 99 116 175 80 163 163 167 169 130 133 132 132 129 130 129 116 115 107 96 79 69 64 53 30 20 30 34 29 27 43 35 350 342 305 323 320 317 353 332 330 329 334 322 322
287 315 16 352 195 151 113 15 165 177 171 173 153 144 138 138 140 140 140 136 135 130 131 112 102 87 65 51 37 40 38 39 47 32 12 13 356 356 355 335 330 338 336 328 339 335 330 324 315
353 46 15 293 214 266 117 231 237 176 143 172 133 149 144 152 147 146 145 140 137 131 119 104 97 81 78 73 62 53 42 43 32 33 25 12 359 21 4 354 343 327 319 316 324 308 307 302 295
11 280 309 307 202 177 134 219 198 187 167 191 159 159 154 143 148 149 145 137 130 125 122 111 95 92 93 83 78 61 45 39 31 43 20 6 8 359 10 350 317 317 320 320 317 310 294 309 295
264 349 299 264 281 167 178 193 178 205 182 194 171 166 157 157 159 150 142 134 134 135 129 123 120 125 120 112 97 71 57 36 45 15 8 17 333 347 348 341 330 331 327 311 316 313 304 295 291
220 233 235 289 339 71 66 67 238 250 257 214 196 167 160 147 141 141 140 136 131 129 128 127 123 131 112 92 101 83 112 266 277 326 327 339 328 343 353 324 339 331 325 310 311 283 302 308 292
241 4 338 316 341 84 137 134 34 347 295 230 202 139 139 145 152 148 143 141 143 132 129 120 124 144 128 116 134 152 177 218 215 282 294 322 346 355 356 352 335 339 326 318 308 306 309 295 306
42 73 16 75 327 17 44 10 19 6 21 21 356 175 159 155 146 147 144 142 133 138 149 152 154 155 133 125 108 43 14 358 348 309 296 303 24 357 337 339 338 327 317 315 299 295 295 307 315
45 307 44 32 62 273 47 256 12 328 6 23 7 75 131 143 139 145 149 112 119 177 178 143 148 134 128 139 144 178 203 205 234 269 284 339 14 320 321 340 330 317 307 303 299 311 295 288 313
226 308 31 349 55 111 340 89 258 359 353 342 4 45 40 56 43 75 83 151 191 178 95 110 111 124 161 186 193 181 205 241 300 274 334 333 303 301 314 328 306 305 308 300 295 315 324 314 319
303 19 38 37 56 35 251 113 323 12 273 312 66 68 62 65 104 123 133 3 223 154 137 123 132 180 206 212 198 181 187 114 341 305 321 303 292 299 313 312 309 303 303 300 314 310 313 303 300
53 51 344 360 8 233 204 47 238 357 7 76 115 108 103 96 26 264 139 148 85 86 97 130 169 229 4 60 68 70 60 54 302 307 282 313 313 307 308 307 313 294 299 301 314 312 303 300 305
109 133 155 251 244 264 4 126 188 146 120 110 125 128 137 187 195 71 57 66 55 45 31 34 41 53 55 54 56 61 37 353 333 309 317 305 296 294 285 294 298 290 298 308 313 306 293 294 303
312 340 188 125 5 70 220 330 318 78 67 78 84 79 73 87 79 77 69 61 55 50 40 33 34 35 33 31 35 9 354 350 327 317 328 335 305 292 314 307 301 331 321 301 307 303 303 299 295
79 248 37 19 29 311 290 237 214 104 126 114 97 89 91 92 79 70 64 58 54 50 41 27 18 10 359 5 359 353 343 340 333 331 328 316 303 317 318 311 326 322 313 315 308 299 288 291 296
343 34 61 123 145 205 259 266 230 157 156 115 91 88 87 77 79 76 69 60 53 49 37 12 357 351 349 356 352 350 336 329 324 325 314 301 305 305 310 314 313 311 313 323 318 311 317 322 315
134 143 110 116 270 215 148 271 357 93 99 81 89 88 83 86 94 98 98 96 81 61 36 16 353 343 339 328 345 332 323 325 324 311 296 305 298 296 291 295 308 302 317 341 343 341 338 346 341